Temp
12 12 12 12 10 10 10 10 11 10 10 10 11 11 11 10 10 11 10 9 10 9 9 10 7 7 6 6 6 6 5 6 7 8 8 8 8 8 8 8 7 6 5
12 12 11 11 11 9 10 10 11 10 10 10 10 10 10 10 11 10 10 9 9 9 8 9 8 7 6 6 6 5 6 7 7 7 8 8 8 8 8 7 5 5 4
12 12 11 11 11 10 9 10 10 10 10 10 10 9 10 10 10 10 9 9 9 8 8 8 7 7 6 5 4 6 7 7 7 7 7 7 7 7 7 5 4 3 3
11 11 11 11 11 9 9 9 9 10 9 10 9 9 10 10 10 9 9 9 8 8 8 8 7 7 6 5 4 7 7 7 7 7 7 7 7 7 6 4 3 3 3
11 11 11 11 11 10 8 9 9 9 9 9 9 9 9 9 9 8 8 8 8 7 8 8 7 6 6 5 4 6 6 6 7 7 6 6 6 6 5 3 3 2 2
10 10 11 11 10 10 8 9 9 9 8 8 9 9 9 9 8 8 7 7 8 7 7 8 7 6 5 5 6 6 6 6 6 6 6 6 6 4 3 2 2 2 2
10 10 10 10 9 9 9 7 8 8 8 8 8 8 8 8 8 8 8 7 7 7 7 6 6 6 5 5 5 6 5 5 5 6 6 5 5 4 2 2 2 2 2
9 9 10 10 9 9 8 8 8 9 8 8 8 8 7 6 7 7 7 7 6 6 6 6 5 5 5 5 5 5 5 5 5 5 5 4 4 2 2 2 2 1 1
8 8 9 9 9 9 8 7 8 8 8 7 8 7 7 6 6 6 6 6 6 6 6 6 5 5 5 5 5 5 5 5 4 4 4 4 3 1 1 1 1 1 1
8 8 8 9 8 8 8 8 8 8 7 8 7 7 8 8 6 5 6 5 6 5 5 5 5 5 5 5 5 5 4 4 4 4 4 4 2 1 1 1 0 0 0
7 7 7 7 7 8 7 8 8 8 7 8 7 7 7 8 7 7 5 5 5 5 5 5 5 5 4 4 4 4 3 3 3 3 3 3 2 0 0 -0 -1 -1 -0
6 7 7 7 7 7 7 7 7 7 6 6 6 7 7 7 7 7 7 5 5 5 4 4 4 4 4 4 4 4 3 3 3 3 3 3 2 2 2 1 -1 -1 -1
6 6 7 7 7 7 7 8 7 6 6 6 7 7 7 6 7 7 7 7 6 6 5 4 4 4 4 3 3 3 3 3 3 2 2 2 2 2 2 1 -0 -2 -2
6 7 7 7 7 6 7 6 7 6 6 6 6 6 6 6 6 6 7 7 4 5 5 4 4 4 3 3 3 3 2 2 2 2 2 2 2 1 1 1 0 -1 -2
6 7 7 6 7 7 6 6 6 7 6 6 5 5 5 5 5 5 6 5 6 5 5 4 4 4 3 2 2 2 2 2 1 1 2 2 1 1 0 -0 -0 -1 -1
6 6 7 7 6 6 6 6 6 6 6 6 6 5 6 5 5 5 5 4 5 5 5 4 4 3 3 2 2 1 1 1 1 1 1 0 0 -0 -1 -1 -1 -2 -2
6 6 6 7 6 6 5 5 6 6 6 6 6 5 5 5 5 4 4 4 4 4 5 5 4 3 3 2 2 1 1 1 0 1 1 0 -0 -1 -1 -1 -2 -2 -2
6 6 6 6 6 5 6 5 5 6 6 5 5 5 5 4 4 4 3 4 3 4 3 4 4 3 2 2 2 1 -0 -0 0 0 -0 -0 -1 -2 -2 -2 -2 -2 -3
6 6 6 6 6 5 5 5 5 5 5 5 4 4 4 3 3 3 3 3 3 2 3 4 4 3 2 2 1 0 -1 -1 -1 -0 -1 -2 -2 -2 -2 -2 -3 -3 -4
5 5 5 5 5 5 5 5 5 5 4 4 4 4 4 3 3 3 2 2 1 1 3 3 2 2 1 0 -1 -1 -1 -1 -1 -1 -2 -3 -3 -3 -3 -3 -4 -4 -4
5 5 5 5 5 5 4 4 4 4 4 4 4 4 3 3 2 2 1 0 1 2 2 2 2 2 1 -0 -1 -1 -1 -2 -2 -2 -2 -3 -2 -3 -4 -4 -4 -4 -5
4 4 4 4 4 4 4 4 4 4 4 4 3 3 2 1 0 -1 1 1 1 1 1 0 1 1 -0 -0 -1 -1 -2 -2 -3 -2 -2 -3 -3 -4 -4 -4 -4 -5 -5
3 3 4 4 4 4 4 4 3 3 3 3 2 2 1 -0 -1 0 0 0 1 -0 1 1 1 0 -1 -1 -2 -2 -2 -3 -4 -4 -3 -3 -4 -4 -4 -5 -5 -6 -6
2 2 2 3 3 3 3 3 2 2 2 2 1 1 0 -2 -2 -1 -0 -1 0 0 0 0 -0 -1 -1 -2 -2 -3 -3 -4 -4 -4 -5 -5 -5 -4 -4 -5 -6 -6 -6
1 1 1 1 1 1 2 2 2 2 1 1 -0 -3 -2 -2 -1 -2 -1 -0 -1 -1 -1 -1 -1 -2 -2 -3 -3 -4 -4 -5 -6 -6 -5 -6 -7 -5 -4 -4 -5 -6 -6
1 0 0 0 0 1 1 1 1 0 -0 -1 -2 -2 -2 -2 -1 -2 -1 -1 -1 -1 -2 -2 -2 -2 -3 -3 -3 -4 -5 -6 -6 -6 -7 -7 -7 -10 -9 -5 -6 -6 -7
Height
1522 1526 1528 1529 1531 1535 1536 1539 1540 1543 1547 1549 1550 1553 1557 1559 1557 1557 1559 1560 1560 1562 1564 1564 1566 1567 1567 1568 1568 1568 1568 1567 1567 1566 1565 1565 1564 1563 1562 1561 1560 1559 1558
1517 1521 1524 1527 1528 1531 1534 1534 1538 1541 1545 1547 1550 1552 1556 1557 1557 1558 1558 1559 1562 1563 1565 1564 1566 1567 1568 1568 1568 1568 1567 1567 1567 1567 1566 1565 1564 1563 1562 1561 1559 1558 1557
1509 1517 1521 1523 1525 1528 1530 1532 1535 1539 1542 1545 1549 1551 1554 1556 1556 1557 1559 1561 1562 1563 1564 1564 1566 1568 1568 1568 1568 1567 1567 1567 1567 1567 1566 1565 1564 1563 1561 1560 1559 1558 1556
1509 1516 1510 1517 1517 1520 1529 1532 1532 1536 1540 1543 1547 1551 1553 1555 1555 1556 1557 1559 1561 1562 1563 1565 1566 1568 1568 1568 1568 1567 1567 1567 1566 1566 1566 1565 1563 1562 1561 1560 1558 1557 1555
1507 1508 1509 1512 1514 1514 1518 1528 1529 1531 1538 1541 1544 1548 1550 1552 1555 1556 1557 1558 1560 1561 1562 1564 1565 1566 1567 1567 1567 1567 1567 1566 1566 1565 1565 1564 1563 1561 1559 1558 1557 1555 1553
1501 1503 1505 1505 1506 1509 1518 1518 1523 1526 1535 1538 1541 1545 1548 1550 1550 1555 1556 1556 1557 1559 1561 1563 1564 1565 1566 1566 1566 1566 1566 1565 1565 1564 1563 1562 1561 1560 1559 1557 1555 1553 1551
1496 1498 1499 1500 1501 1504 1509 1512 1514 1518 1526 1537 1541 1541 1544 1548 1549 1550 1553 1554 1555 1558 1560 1561 1562 1564 1564 1564 1565 1565 1564 1564 1563 1562 1561 1560 1559 1558 1558 1556 1554 1551 1549
1492 1494 1496 1498 1500 1502 1505 1507 1512 1510 1518 1525 1537 1539 1540 1544 1546 1549 1551 1553 1553 1555 1557 1559 1561 1562 1562 1562 1563 1564 1563 1561 1561 1560 1559 1558 1557 1556 1555 1554 1553 1550 1547
1489 1491 1492 1495 1496 1498 1499 1502 1506 1508 1511 1519 1524 1530 1537 1537 1540 1545 1548 1550 1551 1552 1554 1556 1557 1560 1560 1560 1560 1561 1561 1559 1558 1558 1557 1556 1555 1554 1554 1550 1548 1546 1544
1484 1486 1489 1491 1493 1494 1497 1501 1504 1506 1509 1513 1518 1523 1526 1528 1533 1542 1545 1545 1548 1549 1550 1552 1553 1554 1557 1557 1557 1557 1557 1556 1556 1555 1554 1552 1552 1551 1549 1546 1545 1541 1541
1479 1482 1485 1487 1489 1490 1494 1499 1500 1502 1505 1508 1512 1514 1520 1523 1528 1531 1537 1542 1545 1545 1546 1548 1550 1550 1552 1554 1553 1553 1553 1553 1553 1552 1550 1549 1548 1546 1543 1541 1541 1537 1537
1474 1476 1479 1482 1485 1487 1488 1492 1494 1498 1499 1503 1508 1511 1513 1516 1519 1522 1526 1535 1539 1540 1542 1543 1545 1547 1548 1549 1549 1549 1549 1548 1548 1548 1546 1545 1544 1540 1538 1536 1535 1534 1532
1469 1471 1473 1476 1478 1482 1485 1487 1490 1493 1494 1499 1501 1506 1511 1515 1518 1520 1523 1529 1533 1534 1535 1538 1542 1544 1544 1545 1545 1545 1544 1544 1543 1543 1541 1540 1537 1535 1533 1531 1530 1529 1525
1465 1467 1468 1470 1473 1477 1479 1483 1485 1486 1491 1494 1498 1503 1509 1511 1515 1518 1519 1523 1527 1530 1529 1534 1536 1537 1539 1541 1539 1541 1540 1539 1539 1538 1536 1534 1533 1530 1528 1525 1524 1524 1520
1461 1463 1464 1466 1469 1472 1474 1476 1479 1481 1485 1489 1493 1498 1504 1507 1512 1515 1518 1520 1523 1525 1525 1529 1531 1532 1534 1534 1534 1536 1536 1535 1535 1533 1531 1529 1528 1525 1524 1521 1519 1518 1515
1457 1459 1461 1463 1465 1468 1470 1472 1474 1477 1480 1483 1488 1492 1497 1502 1505 1509 1513 1517 1520 1522 1521 1524 1527 1528 1527 1529 1529 1531 1533 1530 1531 1528 1525 1524 1524 1522 1519 1515 1515 1514 1510
1453 1455 1457 1459 1461 1463 1466 1467 1469 1472 1475 1478 1483 1488 1492 1498 1501 1505 1509 1513 1515 1517 1517 1521 1523 1525 1524 1524 1526 1526 1528 1527 1526 1524 1520 1519 1519 1516 1514 1512 1511 1509 1505
1450 1451 1453 1455 1457 1459 1461 1464 1465 1468 1471 1475 1479 1483 1488 1493 1497 1501 1505 1508 1512 1513 1515 1518 1518 1521 1521 1521 1522 1523 1525 1524 1522 1519 1516 1515 1513 1511 1509 1509 1506 1504 1499
1446 1448 1449 1451 1452 1455 1456 1459 1462 1466 1467 1470 1475 1479 1484 1488 1494 1497 1502 1506 1508 1509 1513 1513 1517 1517 1519 1518 1519 1520 1521 1521 1518 1515 1513 1512 1509 1506 1505 1503 1501 1497 1494
1441 1443 1445 1447 1449 1451 1453 1456 1459 1462 1463 1468 1472 1476 1481 1486 1492 1495 1500 1503 1505 1510 1511 1513 1514 1513 1514 1515 1517 1518 1518 1515 1515 1512 1510 1508 1506 1502 1502 1498 1495 1492 1489
1437 1438 1440 1441 1444 1447 1449 1452 1455 1457 1462 1465 1469 1473 1477 1483 1489 1493 1496 1501 1505 1509 1509 1509 1509 1509 1511 1513 1515 1515 1513 1512 1511 1509 1507 1505 1502 1499 1497 1494 1489 1487 1484
1432 1432 1434 1437 1440 1442 1445 1448 1451 1454 1457 1462 1466 1471 1476 1482 1486 1492 1497 1502 1506 1506 1506 1506 1507 1508 1510 1511 1511 1511 1510 1509 1509 1506 1503 1501 1498 1496 1495 1490 1486 1483 1480
1427 1428 1431 1433 1436 1439 1441 1444 1448 1451 1454 1459 1465 1469 1474 1479 1487 1491 1496 1499 1501 1503 1505 1505 1505 1507 1508 1508 1508 1507 1508 1507 1507 1504 1500 1497 1496 1494 1490 1488 1483 1480 1475
1425 1425 1427 1430 1433 1435 1438 1441 1445 1450 1455 1459 1465 1469 1474 1480 1486 1490 1494 1498 1501 1502 1503 1503 1504 1505 1506 1507 1506 1507 1506 1504 1504 1501 1497 1494 1492 1490 1487 1485 1481 1477 1473
1423 1424 1426 1429 1431 1434 1439 1443 1447 1451 1455 1460 1465 1470 1477 1482 1487 1491 1496 1498 1499 1501 1502 1502 1503 1504 1505 1506 1505 1505 1504 1502 1502 1500 1494 1491 1489 1487 1485 1482 1478 1472 1467
1425 1425 1427 1430 1434 1437 1441 1445 1450 1453 1458 1463 1470 1474 1479 1484 1488 1492 1495 1498 1499 1500 1501 1502 1502 1503 1503 1503 1503 1503 1503 1501 1498 1495 1493 1492 1489 1485 1480 1478 1473 1467 1462
Wind_Speed
22 17 15 10 13 14 15 16 19 19 18 17 18 18 14 10 11 19 23 18 10 6 2 4 7 9 10 9 9 8 7 4 4 4 4 4 5 6 7 8 8 7 8
22 21 20 13 16 16 17 21 20 18 20 22 20 19 15 13 15 16 15 13 6 3 2 9 9 9 9 8 9 7 4 2 2 3 4 5 6 7 8 9 9 9 10
32 30 23 19 16 24 23 21 21 19 22 22 21 18 15 15 18 20 19 14 11 3 2 6 10 9 9 8 6 4 2 1 3 4 5 5 6 8 9 8 8 10 10
24 28 32 23 19 25 23 22 22 21 21 23 21 22 22 16 20 20 19 13 7 8 6 9 11 9 9 7 4 1 1 2 3 5 6 7 8 9 9 7 9 10 11
20 26 27 28 27 22 30 26 24 21 19 23 23 26 28 24 16 14 13 13 12 10 13 14 12 13 10 9 3 2 3 4 5 6 7 8 10 10 8 8 10 11 10
21 20 27 29 33 29 35 30 26 21 20 23 22 29 29 27 23 16 12 14 14 12 14 18 15 15 15 11 7 7 7 8 8 9 9 10 11 11 9 8 12 12 11
21 21 18 27 32 33 33 29 29 24 24 24 27 24 26 26 22 22 20 18 16 14 17 19 18 17 19 15 12 10 9 10 10 11 11 12 13 11 9 11 11 12 12
21 21 23 19 19 31 32 32 32 33 32 29 30 29 17 18 23 22 20 20 18 17 19 20 18 18 18 18 15 13 12 11 11 12 12 12 13 11 9 11 13 14 13
19 22 19 24 22 26 36 38 39 37 39 38 37 23 17 10 22 22 24 23 21 20 21 22 19 19 20 19 16 15 14 13 12 12 13 13 12 11 12 13 14 14 15
19 21 23 21 24 28 34 38 39 39 38 43 44 42 31 22 20 14 22 24 24 23 22 21 19 21 21 20 18 17 16 14 14 13 14 14 14 11 13 14 15 14 16
20 21 23 21 24 26 31 29 39 42 38 43 46 46 35 37 29 23 18 24 26 25 24 23 24 23 22 21 19 19 17 16 16 16 16 17 16 15 16 15 15 14 15
20 22 22 23 23 26 37 32 40 41 46 46 47 47 45 39 37 34 24 18 25 25 26 27 26 24 23 23 22 21 20 19 17 17 18 19 20 21 21 19 16 15 16
21 21 20 22 25 26 30 26 40 44 44 43 46 44 42 39 33 29 24 25 22 24 24 26 27 28 26 26 25 23 21 20 19 19 19 20 22 22 21 20 19 17 17
18 19 19 22 21 24 26 25 34 43 42 41 40 40 41 37 35 24 26 25 16 16 19 22 27 26 29 27 27 23 23 21 21 21 20 22 22 21 21 20 21 21 20
18 21 20 20 20 23 24 26 28 41 44 44 44 41 44 44 41 30 26 18 16 13 17 22 23 23 27 28 26 24 23 21 20 20 21 22 21 21 20 19 20 21 22
18 19 20 20 21 20 22 24 27 36 40 43 45 40 41 42 36 31 28 25 20 18 12 19 20 20 20 22 22 21 21 18 19 19 19 20 21 20 19 18 20 22 24
18 20 17 18 19 20 20 19 29 29 36 40 40 37 34 32 33 29 25 20 20 20 18 18 19 19 18 16 15 16 19 18 18 18 19 19 19 19 19 20 22 23 24
19 20 20 22 20 18 19 18 25 30 34 39 38 34 36 36 33 27 26 24 25 22 19 22 16 16 14 13 15 17 17 17 17 17 18 18 17 17 20 21 22 23 24
18 19 20 19 20 18 19 18 23 22 28 28 31 33 30 26 26 21 20 22 21 19 19 14 15 14 14 14 14 15 15 15 15 15 16 14 15 18 20 20 22 23 24
18 16 19 20 18 18 19 19 19 23 25 27 30 33 27 25 22 24 23 19 16 17 16 15 13 12 11 11 13 12 12 12 13 14 13 12 17 18 18 19 21 21 22
16 19 21 17 20 18 22 20 20 24 28 29 28 29 30 25 24 22 16 14 17 18 14 11 9 9 10 10 11 10 9 10 11 11 13 14 16 16 17 19 21 20 19
17 18 15 19 17 19 18 18 23 24 28 28 25 26 23 21 20 16 18 17 16 12 9 10 10 9 8 8 7 8 8 8 7 11 15 15 14 16 17 19 19 16 22
13 17 18 15 18 17 19 21 24 28 29 26 27 24 24 23 21 20 18 13 8 9 11 8 6 6 7 6 6 6 7 8 10 12 15 15 13 18 19 20 15 19 22
9 10 13 14 16 17 18 17 22 27 30 26 25 26 25 24 21 18 16 12 12 9 6 7 6 5 4 4 4 5 6 8 10 12 14 13 17 20 21 19 9 22 24
7 9 9 12 16 18 17 19 21 27 24 29 27 27 25 22 18 14 12 11 8 9 8 6 5 3 2 2 3 5 7 9 8 10 13 20 18 23 23 17 21 25 27
10 11 15 16 20 23 24 17 22 22 27 26 24 21 21 18 17 14 12 9 10 8 7 5 3 1 2 4 5 6 7 8 11 11 15 20 19 20 20 19 28 31 32
Wind_Direction
236 237 241 248 203 197 194 194 195 204 191 194 196 200 191 190 191 194 176 157 163 179 120 288 179 163 157 157 145 135 137 119 87 58 43 33 20 10 3 356 352 356 359
244 257 245 243 215 193 196 198 199 209 204 209 210 202 191 200 202 193 186 168 176 216 234 290 177 183 172 155 156 148 140 102 49 22 12 7 2 356 351 352 356 350 349
239 249 237 233 220 207 202 197 201 208 203 207 212 200 188 200 210 210 220 209 216 202 213 201 183 187 186 179 146 154 120 21 3 354 350 348 348 347 346 352 348 347 350
233 239 232 228 220 206 211 207 203 211 212 212 210 213 206 201 208 218 207 214 206 196 241 195 198 206 204 180 153 127 340 330 329 331 333 334 336 339 341 349 345 337 334
249 240 235 239 239 217 213 209 209 207 215 209 216 215 205 203 202 192 185 185 199 207 219 204 192 197 211 192 176 276 305 314 317 319 322 326 330 332 340 341 328 332 339
245 248 249 237 231 217 209 202 206 204 220 214 216 212 209 209 195 199 194 215 222 212 221 211 201 208 224 237 262 288 301 307 312 317 319 319 324 329 333 328 318 333 329
237 244 251 242 228 219 215 211 199 206 211 214 213 211 200 209 207 212 218 216 205 218 217 211 213 231 238 245 264 275 285 295 305 309 312 315 318 319 322 320 316 313 314
237 238 243 244 237 230 211 206 215 196 206 220 219 212 196 196 196 208 210 210 210 212 222 217 229 241 242 246 258 269 277 285 293 298 305 309 316 317 312 311 311 314 310
232 233 240 236 248 237 221 211 207 212 201 197 208 207 202 199 191 194 204 206 210 215 218 230 229 243 243 248 256 265 275 282 288 295 304 310 314 312 308 303 305 306 311
237 234 234 237 235 234 219 221 218 216 216 201 202 211 206 211 184 200 209 203 212 214 218 228 235 242 245 249 255 262 269 280 289 294 300 304 305 305 299 302 302 308 303
231 229 229 235 236 237 244 224 220 212 212 210 205 206 211 214 215 212 201 209 221 226 231 235 241 241 242 248 253 260 268 278 289 296 302 304 302 302 302 304 302 306 302
228 231 232 228 236 232 234 232 221 223 212 214 217 211 210 213 201 199 197 209 224 229 233 238 239 244 248 251 255 260 266 277 285 291 298 300 298 301 301 301 305 304 301
241 233 230 230 228 230 235 240 231 227 220 213 216 222 221 211 211 205 217 220 213 226 232 240 246 248 250 250 254 261 268 275 282 288 293 295 301 301 302 301 299 301 304
239 238 240 238 232 233 240 236 237 235 221 229 223 218 223 220 216 220 210 201 190 213 225 234 236 245 243 248 254 259 265 274 281 288 294 301 301 301 301 299 299 298 302
239 236 244 239 231 231 234 240 233 233 228 230 221 226 223 228 236 216 237 226 228 218 231 238 243 242 242 244 250 259 265 275 281 289 297 300 301 301 299 298 299 300 302
236 237 238 236 236 235 234 234 238 233 231 227 232 224 223 225 226 234 232 235 233 240 218 234 238 241 242 244 251 258 267 275 278 289 296 298 299 299 299 305 303 302 303
245 232 230 234 243 236 230 239 233 240 227 232 227 224 217 222 232 233 230 224 232 236 234 244 248 243 240 241 250 259 267 272 285 292 295 297 299 300 304 309 305 304 303
235 231 236 240 241 234 225 234 236 233 237 235 225 231 230 235 227 233 224 234 227 239 230 235 240 234 232 234 245 257 270 279 288 295 299 300 298 301 310 309 306 304 309
241 236 238 237 227 235 232 232 234 239 242 239 223 218 211 218 227 224 228 233 232 226 225 234 229 219 221 244 255 263 274 285 294 301 298 298 304 311 308 306 308 313 313
237 241 240 231 229 229 230 229 231 236 229 215 220 214 222 215 219 221 218 222 213 217 213 205 213 223 237 249 250 261 275 290 297 300 301 311 313 310 309 316 316 314 311
249 243 242 230 229 232 228 228 230 229 223 215 208 210 209 211 210 208 198 192 198 197 203 213 230 229 228 234 246 267 282 298 309 307 306 317 314 317 324 322 323 319 314
249 237 234 229 225 237 230 231 233 229 216 211 200 195 193 187 172 166 177 190 192 203 231 223 215 219 226 241 256 277 295 315 323 312 317 330 328 327 326 330 324 321 321
251 233 229 228 225 235 230 231 223 216 200 195 191 182 184 167 164 174 180 192 213 208 204 195 203 228 231 243 265 294 309 319 322 316 323 334 328 330 332 331 326 329 324
239 226 217 216 219 218 223 221 209 194 176 175 178 179 177 162 173 183 202 186 189 180 196 213 211 215 223 249 282 300 312 322 330 326 330 334 336 334 333 333 317 335 326
200 205 208 202 191 179 176 174 177 176 184 173 168 160 166 174 176 147 167 161 183 202 186 184 178 187 202 236 304 323 337 338 337 332 337 342 339 332 333 336 337 339 335
150 156 160 167 173 170 170 182 185 186 163 152 150 152 148 137 144 151 178 193 189 172 162 153 143 107 356 344 340 342 341 342 350 355 336 337 337 341 335 338 343 342 337